Location: Sabana Grande
(18.0777°N, 66.9605°W)
Time: 19:32:13
(UTC-04:00)

ARIANE 6 FM1 Upper Stage - Pass Details

Date: 23 September 2024
Orbit: 563 x 595 km, 62.0° (Epoch: 14 October)

Event Time Altitude Azimuth Distance (km) Brightness Sun altitude
Rises 19:11:28 0° 245° (WSW) 2,752 7.4 -12.4°
Reaches altitude 10° 19:14:40 10° 271° (W) 1,864 6.8 -13.2°
Maximum altitude 19:16:52 14° 303° (WNW) 1,632 6.0 -13.7°
Drops below altitude 10° 19:19:04 10° 335° (NNW) 1,875 5.7 -14.2°
Sets 19:22:19 0° 1° (N) 2,783 6.3 -15.0°
